Location: Albrechtice
(49.2545°N, 14.3063°E)
Time: 21:07:47
(UTC+00:00)

Daily predictions for brighter satellites

Satellite Brightness Start Highest point End
(mag) Time Altitude Azimuth Time Altitude Azimuth Time Altitude Azimuth
USA 307 3.2 15:34:48 10° SW 15:39:03 63° SSE 15:43:16 10° ENE
Cosmos 1766 Rocket 3.5 15:35:55 10° N 15:40:14 63° ENE 15:44:33 10° SSE
SMAP 3.6 15:36:15 10° SE 15:40:33 38° ENE 15:44:51 10° N
H-2A R/B 3.1 15:36:32 10° ESE 15:40:38 24° ENE 15:44:39 10° N
Meteor PRIRODA 3.7 15:37:16 10° SSE 15:40:50 56° ENE 15:44:24 10° N
Cosmos 1862 3.3 15:37:02 10° N 15:40:59 60° ENE 15:44:55 10° SSE
Cosmos 1939 Rocket 3.4 15:38:26 10° SE 15:42:15 37° ENE 15:46:03 10° N
ERBS 3.4 15:40:51 10° SSW 15:43:40 29° SE 15:46:31 10° ENE
Cosmos 1606 3.5 15:41:18 10° SSE 15:44:38 31° E 15:48:01 10° NNE
FengYun 1-2 T 4.4 15:39:43 10° SE 15:45:11 56° ENE 15:50:37 10° N
Cosmos 44 3.6 15:42:54 10° NNW 15:47:37 44° NE 15:52:02 10° ESE
ATLAS CENTAUR R/B 1.5 15:44:01 10° SW 15:48:08 87° ESE 15:52:36 10° NE
SL-16 R/B 4.5 15:43:39 10° N 15:48:23 24° NW 15:53:08 10° WSW
Cosmos 2221 3.2 15:46:12 10° SSE 15:50:01 33° E 15:53:53 10° NNE
Cosmos 2098 Rocket 4.3 15:44:44 10° N 15:51:06 88° W 15:58:22 10° S
COSMO-SKYMED 1 4.4 15:52:40 10° ENE 15:54:34 13° E 15:56:27 10° ESE
CZ-2C R/B 4.0 15:53:18 10° NE 15:56:33 16° E 15:59:46 10° SE
NOAA 12 4.1 15:52:17 10° SSE 15:57:37 80° ENE 16:02:58 10° NNW
CZ-4C R/B 3.7 15:52:17 10° NW 15:57:54 29° NNE 16:04:28 10° E
USA 308 2.9 15:56:59 10° WSW 16:01:14 83° SSE 16:05:10 12° ENE
Okean O Rocket 2.9 16:01:25 10° ESE 16:04:42 21° ENE 16:08:00 10° NNE
ISS -3.5 16:05:54 10° W 16:09:16 59° N 16:11:56 15° ENE
Cosmos 1464 Rocket 4.0 16:06:12 10° S 16:12:30 69° E 16:18:52 10° NNE
YAOGAN 1 4.3 16:13:14 13° NE 16:13:14 13° NE 16:15:08 10° NNE
Cosmos 2322 Rocket 4.2 16:13:08 10° NNE 16:14:01 10° NNE 16:14:55 10° NNE
NOAA 6 4.0 16:08:54 10° SSE 16:14:02 76° ENE 16:19:11 10° NNW
Cosmos 1461 3.7 16:10:30 10° WSW 16:14:35 47° NW 16:18:33 10° NNE
Cosmos 2084 3.9 16:15:06 10° NNW 16:19:07 40° NE 16:23:06 11° ESE
Cosmos 1408 Rocket 3.4 16:14:46 10° N 16:19:08 76° E 16:23:29 10° SSE
Cosmos 1271 Rocket 3.3 16:16:40 10° SSW 16:20:32 62° WNW 16:24:30 10° N
NOSS 2-1 (E) 3.0 16:18:07 10° SW 16:21:21 68° NW 16:24:04 15° NE
GEOS 3 Rocket 3.9 16:17:30 10° ESE 16:22:30 47° NE 16:27:28 10° NNW
CZ-4 R/B 3.5 16:24:22 12° NNE 16:24:22 12° NNE 16:24:56 10° NNE
CZ-4B R/B 3.8 16:18:48 10° S 16:22:53 52° W 16:26:48 10° NNW
Cosmos 1743 Rocket 3.7 16:19:17 10° N 16:23:29 46° ENE 16:27:39 10° SSE
Cosmos 1697 Rocket 3.1 16:18:18 10° NNW 16:23:37 41° NE 16:28:54 10° ESE
Cosmos 1980 Rocket 3.1 16:20:30 10° NNW 16:25:17 27° NE 16:28:49 15° E
Cosmos 1937 Rocket 4.1 16:20:52 10° N 16:25:43 34° NE 16:30:32 10° ESE
Nadezhda 4 Rocket 4.0 16:20:30 10° N 16:26:50 77° E 16:33:10 10° SSE
Cosmos 1782 4.2 16:24:06 10° SE 16:26:53 18° E 16:26:58 18° E
Lacrosse 5 4.0 16:22:56 10° WNW 16:27:21 30° SW 16:31:44 10° S
USA 267 3.4 16:21:33 13° NE 16:27:24 72° NNW 16:33:54 10° WSW
Cosmos 1763 Rocket 4.1 16:23:24 10° SSE 16:27:53 33° ESE 16:31:14 16° NE
deb Kosmos-1763 3.8 16:24:33 10° SSW 16:27:57 81° ESE 16:30:54 13° NNE
SL-16 R/B 3.9 16:25:58 10° N 16:28:43 13° NNE 16:29:47 13° NE
Cosmos 1656 3.6 16:24:26 10° NNW 16:29:59 78° ENE 16:35:35 10° SSE
USA 305 3.0 16:26:25 10° WSW 16:30:37 68° NNW 16:33:22 21° ENE
CZ-2C R/B 4.0 16:26:19 10° S 16:31:09 48° W 16:35:51 10° NNW
CZ-4B DEB 4.2 16:27:49 10° SSE 16:33:21 85° ENE 16:38:53 10° NNW
Cosmos 1340 Rocket 2.7 16:32:03 10° N 16:36:08 74° ENE 16:40:12 10° SSE
Cosmos 2082 Rocket 3.7 16:33:36 10° SE 16:36:39 16° E 16:36:39 16° E
Cosmos 1092 Rocket 4.1 16:30:50 10° N 16:37:06 57° ENE 16:43:20 10° SSE
USA 229 DEB 3.9 16:31:23 10° NW 16:38:36 68° NE 16:46:20 10° SE
USA 229 3.9 16:31:29 10° NW 16:38:42 68° NE 16:46:25 10° SE
Cosmos 990 Rocket 3.9 16:36:10 10° NNW 16:41:24 73° ENE 16:46:34 10° SSE
COSMOS 2406 4.1 16:36:59 10° SSE 16:41:48 28° ESE 16:43:55 22° ENE
AQUARIUS 4.5 16:37:46 10° S 16:42:14 70° WSW 16:46:45 10° NNW
SKYMED 2 4.2 16:40:36 19° NE 16:43:05 35° E 16:47:04 10° SSE
Lacrosse 5 rocket 2.6 16:40:40 10° WNW 16:43:56 26° N 16:45:17 21° NE
Cosmos 1602 3.9 16:42:45 10° N 16:46:29 47° ENE 16:50:13 10° SSE
USA 276 2.1 16:43:30 10° WNW 16:46:38 77° SSW 16:47:51 33° ESE
ATLAS 2AS CENTAUR R/B 4.0 16:39:44 10° W 16:46:42 34° NNW 16:52:29 14° NE
ATLAS CENTAUR R/B 3.3 16:39:00 10° SSW 16:48:33 48° SE 16:50:57 27° E
PAYLOAD B 4.2 16:43:21 10° SSE 16:48:58 89° ENE 16:54:38 10° NNW
Cosmos 1933 3.6 16:45:08 10° SSE 16:49:01 46° E 16:51:18 22° NNE
Cosmos 1428 Rocket 4.4 16:43:40 10° N 16:49:44 61° ENE 16:55:47 10° SSE
SJ 16-02 3.4 16:46:06 10° NW 16:49:57 30° WSW 16:53:46 10° SSW
Cosmos 1500 Rocket 3.6 16:49:29 10° NNW 16:53:58 83° W 16:58:23 10° S
Cosmos 1627 Rocket 4.4 16:48:39 10° N 16:54:51 65° ENE 17:00:56 10° SSE
Cosmos 2034 Rocket 4.0 16:49:48 10° S 16:55:58 83° W 17:02:10 10° N
CZ-2D R/B 3.6 16:57:38 10° S 17:01:28 65° W 17:05:18 10° NNW
NOSS 3-1 (A) 4.0 16:54:39 10° NW 17:02:03 89° NE 17:10:46 10° SE
USA 306 3.3 16:58:23 10° W 17:02:34 54° NNW 17:04:00 35° NE
Meteor 1-20 Rocket 4.4 16:58:19 10° NNW 17:04:09 83° W 17:10:00 10° S
Cosmos 1805 Rocket 3.4 17:00:28 10° N 17:04:50 78° E 17:09:10 10° SSE
Cosmos 1833 Rocket 2.7 17:03:55 10° S 17:09:23 56° ESE 17:11:51 31° NE
Cosmos 2360 4.1 17:04:30 10° NNW 17:10:17 77° ENE 17:16:00 10° SSE
Cosmos 2279 Rocket 4.2 17:05:39 10° SSE 17:11:27 43° E 17:16:36 13° NNE
NOSS 2-2 (D) 4.3 17:07:54 10° NW 17:12:41 55° NE 17:15:23 32° ESE
CZ-4B R/B 3.2 17:08:12 10° SSE 17:13:41 83° WSW 17:19:06 10° NNW
Meteor 1-14 Rocket 4.4 17:08:16 10° N 17:13:54 51° ENE 17:19:36 10° SSE
NOSS 2-2 (E) 4.2 17:09:10 10° NW 17:14:11 66° NE 17:18:12 25° ESE
Sich 1 2.8 17:11:44 10° N 17:16:03 80° E 17:20:19 10° SSE
ARGOS 3.1 17:12:32 10° SSE 17:17:58 86° ENE 17:23:25 10° NNW
USA 307 3.3 17:14:53 10° W 17:19:04 51° NNW 17:19:51 44° NNE
ERBS 2.9 17:16:24 10° W 17:19:27 44° NNW 17:19:27 44° NNW
H-2A R/B 2.6 17:14:33 10° S 17:19:43 58° W 17:24:47 10° NNW
Cosmos 1898 Rocket 3.6 17:14:48 10° NNW 17:20:05 75° WSW 17:25:17 10° SSE
MOS 1-B Rocket 3.9 17:14:38 10° NNE 17:20:21 90° NW 17:26:41 10° SSW
Cosmos 1634 Rocket 3.9 17:15:11 10° S 17:21:29 77° E 17:27:50 10° NNE
SL-24 R/B - RUBIN 2 3.8 17:18:46 10° NNW 17:23:11 50° NE 17:23:11 50° NE
Cosmos 1655 Rocket 4.4 17:19:04 10° N 17:24:55 39° ENE 17:24:55 39° ENE
COSMOS 2455 3.3 17:20:16 10° S 17:25:46 39° ESE 17:25:53 39° ESE
Landsat 5 3.3 17:27:18 70° E 17:27:24 70° ESE 17:31:29 10° S
ATLAS CENTAUR R/B 3.5 17:24:14 10° W 17:27:38 22° NNW 17:29:27 18° N
Cosmos 468 Rocket 3.9 17:22:35 10° SSW 17:27:44 85° WNW 17:30:21 30° NNE
SL-19 R/B 4.4 17:23:31 10° NNE 17:29:29 90° ESE 17:35:55 10° SSW
COSMO-SKYMED 1 2.6 17:29:13 31° N 17:31:18 80° WNW 17:35:38 10° SSW
Meteor 2-16 Rocket 4.3 17:25:43 10° N 17:31:49 69° ENE 17:37:55 10° SSE
Cosmos 2026 Rocket 4.2 17:28:07 10° NNW 17:34:16 71° W 17:40:19 10° S
SL-08 RB Rocket 3.6 17:31:18 10° SSE 17:35:57 90° SW 17:40:37 10° NNW
Cosmos 540 Rocket 3.3 17:31:19 10° SSW 17:36:23 72° ESE 17:37:03 63° ENE
deb Chang Zheng 4 4.5 17:32:16 10° S 17:36:26 49° W 17:40:38 10° NNW
CZ-2C R/B 2.6 17:32:51 13° NNE 17:37:30 78° WNW 17:42:40 10° SSW
Cosmos 1500 3.5 17:36:38 10° NNW 17:44:47 - S 17:40:06 61° WNW
Okean O Rocket 2.3 17:36:20 10° S 17:40:41 55° W 17:45:06 10° NNW
USA 308 3.6 17:37:17 10° W 17:41:12 45° NNW 17:41:12 45° NNW
Cosmos 2360 Rocket 4.1 17:39:25 10° N 17:41:19 16° N 17:41:19 16° N
ISS -2.0 17:42:56 10° WNW 17:44:55 32° WNW 17:44:55 32° WNW
CZ-4C R/B 2.9 17:40:45 10° NW 17:47:41 66° NE 17:49:48 49° E
YAOGAN 1 3.7 17:50:22 34° NNW 17:50:22 34° NNW 17:52:54 10° NNW
Cosmos 2180 Rocket 4.4 17:42:19 10° S 17:48:34 62° E 17:49:36 55° NE
Meteor 1-5 Rocket 4.3 17:49:04 10° NNW 17:55:06 89° W 18:01:04 10° S
CZ-4 R/B 3.7 18:00:22 17° NNW 18:00:22 17° NNW 18:01:18 10° NNW
Cosmos 2369 4.0 17:53:51 10° NNW 17:59:33 67° WSW 18:02:24 30° S
Cosmos 2322 Rocket 3.8 17:55:07 10° NNW 17:57:35 22° N 17:57:35 22° N
Cosmos 1782 4.0 17:59:03 10° SSW 18:02:36 42° W 18:02:36 42° W
Cosmos 1697 Rocket 3.9 18:02:23 10° NW 18:07:35 39° WSW 18:12:44 10° S
Cosmos 1980 Rocket 2.4 18:04:10 10° NNW 18:09:49 70° WSW 18:10:40 60° SSW
USA 267 3.7 18:08:54 43° NNE 18:09:58 46° N 18:16:09 10° WNW
NOSS 2-2 (C) 4.4 18:04:55 10° NW 18:10:01 74° SW 18:10:59 62° S
Cosmos 841 Rocket 3.8 18:05:50 10° SSW 18:10:09 61° SW 18:10:09 61° SW
Cosmos 2333 Rocket 4.4 18:10:28 10° N 18:11:35 13° N 18:11:35 13° N
SL-16 R/B 3.6 18:08:57 10° NNW 18:11:40 26° N 18:11:40 26° N
Cosmos 2082 Rocket 2.7 18:14:26 10° SSW 18:18:33 50° SSW 18:18:33 50° SSW
Lacrosse 5 rocket 3.8 18:19:58 10° NW 18:20:53 16° NW 18:20:53 16° NW
Cosmos 2278 4.1 18:19:57 10° NNW 18:24:48 61° WNW 18:24:48 61° WNW
COSMOS 2406 3.7 18:20:08 10° SW 18:25:47 56° NW 18:26:02 56° NW
ATLAS 2AS CENTAUR R/B 4.2 18:33:38 10° NW 18:39:54 27° N 18:39:54 27° N
Cosmos 1833 Rocket 4.2 18:48:39 10° WSW 18:53:35 31° NW 18:53:35 31° NW
COSMOS 2455 4.4 19:05:47 10° WSW 19:09:04 31° WSW 19:09:04 31° WSW
CZ-4C R/B 4.0 19:29:27 10° NW 19:35:02 40° W 19:35:02 40° W
